Location: Huntsville
(41.2590°N, 111.7678°W)
Time: 06:49:35
(UTC+00:00)

Vanguard 3 - Pass Details

Date: 20 June 2021
Orbit: 508 x 3261 km, 33.4° (Epoch: 29 July)

Event Time Altitude Azimuth Distance (km) Brightness Sun altitude
Rises 20:42:47 0° 256° (WSW) 3,746 10.8 66.4°
Reaches altitude 10° 20:46:50 10° 230° (SW) 3,263 10.8 65.8°
Maximum altitude 20:50:35 14° 203° (SSW) 3,415 10.9 65.3°
Drops below altitude 10° 20:55:12 10° 178° (S) 4,212 11.2 64.6°
Sets 21:02:12 0° 157° (SSE) 5,913 11.6 63.6°
